User: anonymous   Login
Location: Houston
(29.7630°N, 95.3630°W)
Time: 10:58:11
(UTC-05:00)
Language:

Saudisat 1A - Orbit

View from above orbital plane
View from above orbital plane
View from above satellite
View from above satellite

Ground track
Ground track

The orbit data is extracted from the following two-line orbital elements,

1 26546U 00057B   18173.68647660  .00000001  00000-0  16047-4 0  9991
2 26546  64.5547 255.4763 0014203 321.0669  38.9417 14.90740226961884
Epoch (UTC): 22 June 2018 16:28:31
Eccentricity: 0.0014203
inclination: 64.5547°
perigee height: 586 km
apogee height: 605 km
right ascension of ascending node: 255.4763°
argument of perigee: 321.0669°
revolutions per day: 14.90740226
mean anomaly at epoch: 38.9417°
orbit number at epoch: 96188

The dashed part of the orbit path shows where the satellite is in the earth's shadow,  

DLR